TOURFACTS.DK  
Stats and Facts from Tour de France.

Tour de France 2017 starts in 2 days
  Riders   Stages   Teams   Summits   Yearly  


 
Search by year

 After:  2016 - Stage 21:
  14626 starters.
  5126 different riders.
  634 teams.
  2211 stages.
  454 restdays.
  436049.60 km.
  5622 abandonnees.


Top 3
Christopher Froome89:04:48
Romain Bardet89:08:53
Nairo Quintana89:09:09
Rafal Majka209 pt.
Thomas De Gendt130 pt.
Jarlinson Pantano ..121 pt.
Peter Sagan470 pt.
Marcel Kittel228 pt.
Michael Matthews199 pt.
Adam Yates89:09:30
Louis Meintjes89:11:46
Emanuel Buchmann89:52:28
Facts from Tour de France 2015
  |   Stages.  |   Stage winners.  |   Days in yellow  |   Average speed.  |   Route.  |   Teams.  |   All riders.  |   Rookies.  |   Withdrawls.  |  

  |   GC.  |   Polka  |   Green  |   White  |   Summits. (In tour)  |   Summits. (Points)  |   Miscellaneous.  |  

Stage 8 on 11 - 07 - 2015
         Owning:    Christopher Froome      Daniel Teklehaimanot      André Greipel      Peter Sagan  

Pick a stage:  1 2 3 4 5 6 7 8 10 11 12 13 14 15 16 17 18 19 20 21
  RennesMûr de Bretagne | Dist: 181.50 km.
Cat: 4Col du Mont Bel-AirFRARomain Sicard1 points 
Cat: 3Mûr-de-BretagneFRAAlexis Vuillermoz2 points 

Average speed for all riders in stage:  40,934 km./hr.
    Place:Name:Team:Time:Km/h:
FRAAlexis VuillermozFRAAg2r La Mondiale04:20:55  +  00:00:00=41,737 
ENGDaniel MartinUSATeam Cannondale - Garmin04:21:00  +  00:00:05=41,724 
28 BELSerge PauwelsZAFMTN - Qhubeka P/B Samsung04:21:15  +  00:00:20=41,684 
29 ESPHaimar ZubeldiaUSATrek Factory Racing04:21:15  +  00:00:20=41,684 
30 ITAVincenzo NibaliKAZAstana Pro Team04:21:15  +  00:00:20=41,684 
31 USAAndrew TalanskyUSATeam Cannondale - Garmin04:21:15  +  00:00:20=41,684 
32 FRAThibaut PinotFRAFDJ04:21:20  +  00:00:25=41,671 
33 BELJan BakelantsFRAAg2r La Mondiale04:21:26  +  00:00:31=41,655 
34 FRARomain BardetFRAAg2r La Mondiale04:21:26  +  00:00:31=41,655 
35 DEUPaul VossDEUBora-Argon 1804:21:28  +  00:00:33=41,650 
36 DEUDominik NerzDEUBora-Argon 1804:21:28  +  00:00:33=41,650 
37 FRACyril GautierFRATeam Europcar04:21:28  +  00:00:33=41,650 
38 CZEZdenek StybarBELEtixx - Quick Step04:21:28  +  00:00:33=41,650 
39 CHEMarcel WyssCHEIAM Cycling04:21:28  +  00:00:33=41,650 
40 DEUSimon GeschkeDEUTeam Giant Alpecin04:21:28  +  00:00:33=41,650 
41 COLJarlinson Pantano GomezCHEIAM Cycling04:21:36  +  00:00:41=41,628 
42 FRAThomas VoecklerFRATeam Europcar04:21:36  +  00:00:41=41,628 
43 ESPLuis Angel MateFRACofidis – Solutions Crédits04:21:40  +  00:00:45=41,618 
44 NLDSteven KruijswijkNLDTeam Lotto NL - Jumbo04:21:40  +  00:00:45=41,618 
45 ARGEduardo SepulvedaFRABretagne - Séché Environnement04:21:40  +  00:00:45=41,618 
46 FRAPierrick FédrigoFRABretagne - Séché Environnement04:21:40  +  00:00:45=41,618 
47 PRTRui CostaITALampre-Merida04:21:40  +  00:00:45=41,618 
48 WALGeraint ThomasGBRSky Procycling04:21:54  +  00:00:59=41,581 
49 PRTTiago PintoRUSTeam Katusha04:21:54  +  00:00:59=41,581 
50 ITAGiampaolo CarusoRUSTeam Katusha04:21:54  +  00:00:59=41,581 
51 ESPAlberto LosadaRUSTeam Katusha04:21:54  +  00:00:59=41,581 
52 USRTanel KangertKAZAstana Pro Team04:21:54  +  00:00:59=41,581 
53 NOREdvald Boasson HagenZAFMTN - Qhubeka P/B Samsung04:21:57  +  00:01:02=41,573 
54 FRASylvain ChavanelCHEIAM Cycling04:21:57  +  00:01:02=41,573 
55 FRAAnthony DelaplaceFRABretagne - Séché Environnement04:21:57  +  00:01:02=41,573 
56 CHEJakob FuglsangKAZAstana Pro Team04:22:04  +  00:01:09=41,554 
57 AUTGeorg PreidlerDEUTeam Giant Alpecin04:22:04  +  00:01:09=41,554 
58 NLDLaurens ten DamNLDTeam Lotto NL - Jumbo04:22:04  +  00:01:09=41,554 
59 ZAFJacques Janse Van RensburgZAFMTN - Qhubeka P/B Samsung04:22:04  +  00:01:09=41,554 
60 FRAMickaël CherelFRAAg2r La Mondiale04:22:04  +  00:01:09=41,554 
61 COLWinner AnaconaESPMovistar Team04:22:04  +  00:01:09=41,554 
62 ESPRafael Valls FerriITALampre-Merida04:22:08  +  00:01:13=41,544 
63 ERIDaniel TeklehaimanotZAFMTN - Qhubeka P/B Samsung04:22:08  +  00:01:13=41,544 
64 FRAArmindo FonsecaFRABretagne - Séché Environnement04:22:08  +  00:01:13=41,544 
65 CZEJan BártaDEUBora-Argon 1804:22:35  +  00:01:40=41,473 
66 FRABrice FeilluFRABretagne - Séché Environnement04:22:35  +  00:01:40=41,473 
67 PRTJosé João PimentaDEUBora-Argon 1804:22:35  +  00:01:40=41,473 
68 NLDStef ClementCHEIAM Cycling04:22:55  +  00:02:00=41,420 
69 FRAJérôme CoppelCHEIAM Cycling04:22:55  +  00:02:00=41,420 
70 NLDKoen De KortDEUTeam Giant Alpecin04:22:55  +  00:02:00=41,420 
71 NLDBram TankinkNLDTeam Lotto NL - Jumbo04:22:55  +  00:02:00=41,420 
72 ESPRubén PlazaITALampre-Merida04:22:55  +  00:02:00=41,420 
73 FRAGeoffrey SoupeFRACofidis – Solutions Crédits04:23:03  +  00:02:08=41,399 
74 CHESteve MorabitoFRAFDJ04:23:03  +  00:02:08=41,399 
75 UKRAndriy GrivkoKAZAstana Pro Team04:23:21  +  00:02:26=41,352 
76 ESPMarkel IrizarUSATrek Factory Racing04:23:21  +  00:02:26=41,352 
77 NLDRoy CurversDEUTeam Giant Alpecin04:23:21  +  00:02:26=41,352 
78 BELSep VanmarckeNLDTeam Lotto NL - Jumbo04:23:31  +  00:02:36=41,326 
79 ESPJonathan CastroviejoESPMovistar Team04:23:44  +  00:02:49=41,292 
80 SVNKristjan KorenUSATeam Cannondale - Garmin04:23:44  +  00:02:49=41,292 
81 HRVKristijan DurasekITALampre-Merida04:23:44  +  00:02:49=41,292 
82 FRABenoit VaugrenardFRAFDJ04:23:44  +  00:02:49=41,292 
83 LUXBen GastauerFRAAg2r La Mondiale04:23:44  +  00:02:49=41,292 
84 ZAFReinardt Janse Van RensburgZAFMTN - Qhubeka P/B Samsung04:23:44  +  00:02:49=41,292 
85 CHEReto HollensteinCHEIAM Cycling04:23:44  +  00:02:49=41,292 
86 FRAPerrig QuemeneurFRATeam Europcar04:24:00  +  00:03:05=41,250 
87 FRABryan NauleauFRATeam Europcar04:24:00  +  00:03:05=41,250 
88 NLDJos Van EmdenNLDTeam Lotto NL - Jumbo04:24:03  +  00:03:08=41,242 
89 ITAFilippo PozzatoITALampre-Merida04:24:03  +  00:03:08=41,242 
90 ESPJosé Herrada LópezESPMovistar Team04:24:03  +  00:03:08=41,242 
91 NLDRamon SinkeldamDEUTeam Giant Alpecin04:24:03  +  00:03:08=41,242 
92 AUSLuke DurbridgeAUSOrica - GreenEDGE04:24:03  +  00:03:08=41,242 
93 NLDWilco KeldermanNLDTeam Lotto NL - Jumbo04:24:03  +  00:03:08=41,242 
94 NLDTom LeezerNLDTeam Lotto NL - Jumbo04:24:03  +  00:03:08=41,242 
95 AUSAdam HansenBELLotto Soudal04:24:03  +  00:03:08=41,242 
96 POLMichal KwiatkowskiBELEtixx - Quick Step04:24:03  +  00:03:08=41,242 
97 AUSRichie PorteGBRSky Procycling04:24:03  +  00:03:08=41,242 
98 BELJohan VansummerenFRAAg2r La Mondiale04:24:21  +  00:03:26=41,195 
99 BELTim WellensBELLotto Soudal04:24:21  +  00:03:26=41,195 
100 FRAMatthieu LadagnousFRAFDJ04:24:29  +  00:03:34=41,175 
101 ITAMatteo BonoITALampre-Merida04:24:54  +  00:03:59=41,110 
102 COLJosé SerpaITALampre-Merida04:24:54  +  00:03:59=41,110 
103 FRAArnaud GérardFRABretagne - Séché Environnement04:24:57  +  00:04:02=41,102 
104 FRAFlorian VachonFRABretagne - Séché Environnement04:24:57  +  00:04:02=41,102 
105 FRAChristophe LaporteFRACofidis – Solutions Crédits04:24:57  +  00:04:02=41,102 
106 CZELeopold KönigGBRSky Procycling04:25:02  +  00:04:07=41,089 
107 FRAAlexandre GeniezFRAFDJ04:25:23  +  00:04:28=41,035 
108 AUTMarco HallerRUSTeam Katusha04:25:34  +  00:04:39=41,007 
109 BELThomas De GendtBELLotto Soudal04:25:47  +  00:04:52=40,973 
110 FRABryan CoquardFRATeam Europcar04:25:47  +  00:04:52=40,973 
111 FRAArnaud DémareFRAFDJ04:25:50  +  00:04:55=40,966 
112 FRAAngelo TulikFRATeam Europcar04:25:50  +  00:04:55=40,966 
113 NLDPieter WeeningAUSOrica - GreenEDGE04:26:09  +  00:05:14=40,917 
114 ITADaniele BennatiRUSTinkoff Saxo04:26:37  +  00:05:42=40,845 
115 AUSMichael RogersRUSTinkoff Saxo04:26:37  +  00:05:42=40,845 
116 CANRyder HesjedalUSATeam Cannondale - Garmin04:26:37  +  00:05:42=40,845 
117 ITADamiano CarusoUSABMC Racing Team04:26:37  +  00:05:42=40,845 
118 NORAlexander KristoffRUSTeam Katusha04:26:37  +  00:05:42=40,845 
119 USATyler FarrarZAFMTN - Qhubeka P/B Samsung04:27:07  +  00:06:12=40,769 
120 ITAIvan BassoRUSTinkoff Saxo04:27:07  +  00:06:12=40,769 
121 BELJulien VermoteBELEtixx - Quick Step04:27:07  +  00:06:12=40,769 
122 CHEGregory RastUSATrek Factory Racing04:27:07  +  00:06:12=40,769 
123 BELStijn DevolderUSATrek Factory Racing04:27:07  +  00:06:12=40,769 
124 FRAFlorian SénéchalFRACofidis – Solutions Crédits04:27:07  +  00:06:12=40,769 
125 DNKLars BakBELLotto Soudal04:27:07  +  00:06:12=40,769 
126 DNKMichael ValgrenRUSTinkoff Saxo04:27:07  +  00:06:12=40,769 
127 ESPDaniel NavarroFRACofidis – Solutions Crédits04:27:07  +  00:06:12=40,769 
128 USRRein TaaramäeKAZAstana Pro Team04:27:07  +  00:06:12=40,769 
129 DEUMarcel SiebergBELLotto Soudal04:27:07  +  00:06:12=40,769 
130 DEUAndré GreipelBELLotto Soudal04:27:07  +  00:06:12=40,769 
131 ITAJacopo GuarnieriRUSTeam Katusha04:27:07  +  00:06:12=40,769 
132 ENGStephen CummingsZAFMTN - Qhubeka P/B Samsung04:27:07  +  00:06:12=40,769 
133 ESPImanol ErvitiESPMovistar Team04:27:07  +  00:06:12=40,769 
134 ITADaniel OssUSABMC Racing Team04:27:07  +  00:06:12=40,769 
135 ENGIan StannardGBRSky Procycling04:27:07  +  00:06:12=40,769 
ESPAlejandro ValverdeESPMovistar Team04:28:20  +  00:07:25=40,584 
4 SVKPeter SaganRUSTinkoff Saxo04:28:20  +  00:07:25=40,584 
5 FRATony GallopinBELLotto Soudal04:28:20  +  00:07:25=40,584 
6 BELGreg Van AvermaetUSABMC Racing Team04:28:20  +  00:07:25=40,584 
7 ENGAdam YatesAUSOrica - GreenEDGE04:28:20  +  00:07:25=40,584 
8 KENChristopher FroomeGBRSky Procycling04:28:20  +  00:07:25=40,584 
9 NLDBauke MollemaUSATrek Factory Racing04:28:20  +  00:07:25=40,584 
10 USATejay Van GarderenUSABMC Racing Team04:28:20  +  00:07:25=40,584 
11 COLJulián ArredondoUSATrek Factory Racing04:28:20  +  00:07:25=40,584 
12 ESPJoaquim RodriguezRUSTeam Katusha04:28:20  +  00:07:25=40,584 
13 FRAWarren BarguilDEUTeam Giant Alpecin04:28:20  +  00:07:25=40,584 
14 ESPAlberto ContadorRUSTinkoff Saxo04:28:20  +  00:07:25=40,584 
15 COLRigoberto UranBELEtixx - Quick Step04:28:20  +  00:07:25=40,584 
16 CZERoman KreuzigerRUSTinkoff Saxo04:28:20  +  00:07:25=40,584 
17 COLNairo QuintanaESPMovistar Team04:28:20  +  00:07:25=40,584 
18 FRAJulien SimonFRACofidis – Solutions Crédits04:28:20  +  00:07:25=40,584 
19 NLDRobert GesinkNLDTeam Lotto NL - Jumbo04:28:20  +  00:07:25=40,584 
20 FRAPierre RollandFRATeam Europcar04:28:20  +  00:07:25=40,584 
21 ESPGorka Izaguirre InsaustiESPMovistar Team04:28:20  +  00:07:25=40,584 
22 ESPSamuel SanchezUSABMC Racing Team04:28:20  +  00:07:25=40,584 
23 ENGSimon YatesAUSOrica - GreenEDGE04:28:20  +  00:07:25=40,584 
24 FRAJean-Christophe PeraudFRAAg2r La Mondiale04:28:20  +  00:07:25=40,584 
25 CHEMathias FrankCHEIAM Cycling04:28:20  +  00:07:25=40,584 
26 DEUPaul MartensNLDTeam Lotto NL - Jumbo04:28:20  +  00:07:25=40,584 
27 LUXBob JungelsUSATrek Factory Racing04:28:20  +  00:07:25=40,584 
136 ITAMatteo TrentinBELEtixx - Quick Step04:28:53  +  00:07:58=40,501 
137 ITAMatteo TosattoRUSTinkoff Saxo04:28:53  +  00:07:58=40,501 
138 FRAChristophe RiblonFRAAg2r La Mondiale04:28:53  +  00:07:58=40,501 
139 FRANicolas RocheGBRSky Procycling04:28:53  +  00:07:58=40,501 
140 CHEMichael SchärUSABMC Racing Team04:28:53  +  00:07:58=40,501 
141 ITAManuel QuinziatoUSABMC Racing Team04:28:53  +  00:07:58=40,501 
142 AUSRohan DennisUSABMC Racing Team04:28:53  +  00:07:58=40,501 
143 FRASébastien ChavanelFRAFDJ04:28:53  +  00:07:58=40,501 
144 FRAJérémy RoyFRAFDJ04:28:53  +  00:07:58=40,501 
145 NLDLars BoomKAZAstana Pro Team04:28:53  +  00:07:58=40,501 
146 CHEDanilo WyssUSABMC Racing Team04:28:53  +  00:07:58=40,501 
147 CHEMartin ElmigerCHEIAM Cycling04:28:53  +  00:07:58=40,501 
148 NLDLieuwe WestraKAZAstana Pro Team04:28:53  +  00:07:58=40,501 
149 FRAPierre-Luc PérichonFRABretagne - Séché Environnement04:28:53  +  00:07:58=40,501 
150 AUTMatthias BrändleCHEIAM Cycling04:28:53  +  00:07:58=40,501 
151 LUXLaurent DidierUSATrek Factory Racing04:28:53  +  00:07:58=40,501 
152 POLMichal GolasBELEtixx - Quick Step04:28:53  +  00:07:58=40,501 
153 POLRafal MajkaRUSTinkoff Saxo04:28:53  +  00:07:58=40,501 
154 POLBartosz HuzarskiDEUBora-Argon 1804:28:53  +  00:07:58=40,501 
155 DEUJohn DegenkolbDEUTeam Giant Alpecin04:28:53  +  00:07:58=40,501 
156 BELJens DebusschereBELLotto Soudal04:28:53  +  00:07:58=40,501 
157 FRAYohann GèneFRATeam Europcar04:28:53  +  00:07:58=40,501 
158 BELSam BennettDEUBora-Argon 1804:28:53  +  00:07:58=40,501 
159 CANSvein TuftAUSOrica - GreenEDGE04:28:53  +  00:07:58=40,501 
160 AUSZakkari DempsterDEUBora-Argon 1804:28:53  +  00:07:58=40,501 
161 IMNPeter KennaughGBRSky Procycling04:30:04  +  00:09:09=40,323 
162 AUSMichael MatthewsAUSOrica - GreenEDGE04:30:04  +  00:09:09=40,323 
163 IMNMark CavendishBELEtixx - Quick Step04:30:04  +  00:09:09=40,323 
164 ENGAlex DowsettESPMovistar Team04:30:04  +  00:09:09=40,323 
165 WALLuke RoweGBRSky Procycling04:30:04  +  00:09:09=40,323 
166 ERIMerhawi GhebremedhinZAFMTN - Qhubeka P/B Samsung04:30:04  +  00:09:09=40,323 
167 AUSMark RenshawBELEtixx - Quick Step04:30:04  +  00:09:09=40,323 
168 NLDAlbert TimmerDEUTeam Giant Alpecin04:30:04  +  00:09:09=40,323 
169 PRTNelson OliveiraITALampre-Merida04:30:04  +  00:09:09=40,323 
170 FRAFrédéric BrunFRABretagne - Séché Environnement04:30:04  +  00:09:09=40,323 
171 FRARomain SicardFRATeam Europcar04:30:04  +  00:09:09=40,323 
172 KAZDmitriy GruzdevKAZAstana Pro Team04:30:04  +  00:09:09=40,323 
173 ITAAdriano MaloriESPMovistar Team04:30:04  +  00:09:09=40,323 
174 ZAFLouis MeintjesZAFMTN - Qhubeka P/B Samsung04:30:04  +  00:09:09=40,323 
175 ITAMichele ScarponiKAZAstana Pro Team04:30:04  +  00:09:09=40,323 
176 FRANicolas EdetFRACofidis – Solutions Crédits04:30:44  +  00:09:49=40,224 
177 BELKenneth VanbilsenFRACofidis – Solutions Crédits04:30:44  +  00:09:49=40,224 
178 NLDDylan Van BaarleUSATeam Cannondale - Garmin04:31:53  +  00:10:58=40,054 
179 ITADavide CimolaiITALampre-Merida04:31:53  +  00:10:58=40,054 
180 AUSNathan HaasUSATeam Cannondale - Garmin04:31:53  +  00:10:58=40,054 
181 NLDSebastian LangeveldUSATeam Cannondale - Garmin04:31:53  +  00:10:58=40,054 
182 USRRamunas NavardauskasUSATeam Cannondale - Garmin04:31:53  +  00:10:58=40,054 
183 NLDWout PoelsGBRSky Procycling04:31:53  +  00:10:58=40,054 
184 DEUEmanuel BuchmannDEUBora-Argon 1804:31:53  +  00:10:58=40,054 
185 FRADamien GaudinFRAAg2r La Mondiale04:31:53  +  00:10:58=40,054 

Withdrawls: 1
 
Rider
Team
Reason
99  ITALuca PaoliniRUSTeam KatushaDid not start

Todays birthdays.

1888  René Etien
1891  Arturo Ferrario
1913  Léon Theerlynck
1921  Roger Piel
1929  Antonio Ferraz
1930  Rizzardo Brenioli
1934  Orphée Meneghini
1943  Pietro Guerra
1961  Marc Somers
1964  Ettore Badolato
1967  Miguel Angel Martinez
1968  Davide Bramati
1981  Vasil Kiryienka